Time,TemperatureF,DewpointF,PressureIn,WindDirection,WindDirectionDegrees,WindSpeedMPH,WindSpeedGustMPH,Humidity,HourlyPrecipIn,Conditions,Clouds,dailyrainin,SoftwareType,DateUTC
2013-12-27 00:12:00,32.0,28.0,30.26,SE,133,2.0,6.0,84,0.00,,,0.00,,2013-12-27 05:12:00,
2013-12-27 00:22:00,32.0,28.0,30.26,SE,124,3.0,7.0,84,0.00,,,0.00,,2013-12-27 05:22:00,
2013-12-27 00:52:00,32.0,28.0,30.25,South,182,1.0,5.0,84,0.00,,,0.00,,2013-12-27 05:52:00,
2013-12-27 01:12:00,32.0,28.0,30.25,SSW,196,1.0,3.0,84,0.00,,,0.00,,2013-12-27 06:12:00,
2013-12-27 01:22:00,33.0,28.0,30.25,South,172,1.0,5.0,83,0.00,,,0.00,,2013-12-27 06:22:00,
2013-12-27 01:43:00,33.0,28.0,30.25,SSE,162,1.0,6.0,83,0.00,,,0.00,,2013-12-27 06:43:00,
2013-12-27 01:52:00,33.0,28.0,30.25,South,177,1.0,5.0,83,0.00,,,0.00,,2013-12-27 06:52:00,
2013-12-27 02:12:00,33.0,28.0,30.25,SSE,152,1.0,5.0,83,0.00,,,0.00,,2013-12-27 07:12:00,
2013-12-27 02:22:00,33.0,29.0,30.25,WSW,240,0.0,4.0,84,0.00,,,0.00,,2013-12-27 07:22:00,
2013-12-27 02:42:00,33.0,29.0,30.25,SSE,155,0.0,4.0,84,0.00,,,0.00,,2013-12-27 07:42:00,
2013-12-27 02:52:00,33.0,29.0,30.25,WSW,254,0.0,3.0,84,0.00,,,0.00,,2013-12-27 07:52:00,
2013-12-27 03:22:00,33.0,29.0,30.26,South,173,0.0,2.0,84,0.00,,,0.00,,2013-12-27 08:22:00,
2013-12-27 03:42:00,33.0,29.0,30.27,SSE,161,0.0,4.0,85,0.00,,,0.00,,2013-12-27 08:42:00,
2013-12-27 03:52:00,33.0,29.0,30.27,SSE,161,0.0,2.0,85,0.00,,,0.00,,2013-12-27 08:52:00,
2013-12-27 04:11:00,32.0,28.0,30.27,SSE,161,0.0,2.0,85,0.00,,,0.00,,2013-12-27 09:11:00,
2013-12-27 04:21:00,32.0,28.0,30.27,SSE,161,0.0,0.0,86,0.00,,,0.00,,2013-12-27 09:21:00,
2013-12-27 04:43:00,32.0,28.0,30.27,SSE,161,0.0,1.0,86,0.00,,,0.00,,2013-12-27 09:43:00,
2013-12-27 04:53:00,32.0,29.0,30.27,SSE,161,0.0,2.0,87,0.00,,,0.00,,2013-12-27 09:53:00,
2013-12-27 05:12:00,32.0,28.0,30.26,SSE,161,0.0,2.0,86,0.00,,,0.00,,2013-12-27 10:12:00,
2013-12-27 05:23:00,32.0,28.0,30.27,SSE,161,0.0,1.0,86,0.00,,,0.00,,2013-12-27 10:23:00,
2013-12-27 05:42:00,31.0,28.0,30.27,SSE,161,0.0,2.0,87,0.00,,,0.00,,2013-12-27 10:42:00,
2013-12-27 05:52:00,30.0,27.0,30.27,SSE,161,0.0,1.0,87,0.00,,,0.00,,2013-12-27 10:52:00,
2013-12-27 06:12:00,30.0,27.0,30.27,SSE,161,0.0,1.0,89,0.00,,,0.00,,2013-12-27 11:12:00,
2013-12-27 06:22:00,29.0,26.0,30.28,SSE,161,0.0,1.0,90,0.00,,,0.00,,2013-12-27 11:22:00,
2013-12-27 06:43:00,29.0,26.0,30.28,SSE,161,0.0,2.0,90,0.00,,,0.00,,2013-12-27 11:43:00,
2013-12-27 06:53:00,29.0,26.0,30.29,SSE,161,0.0,1.0,90,0.00,,,0.00,,2013-12-27 11:53:00,
2013-12-27 07:11:00,29.0,26.0,30.29,SSE,161,0.0,0.0,90,0.00,,,0.00,,2013-12-27 12:11:00,
2013-12-27 07:22:00,29.0,26.0,30.29,SSE,161,0.0,1.0,90,0.00,,,0.00,,2013-12-27 12:22:00,
2013-12-27 07:42:00,28.0,25.0,30.30,SSE,161,0.0,0.0,90,0.00,,,0.00,,2013-12-27 12:42:00,
2013-12-27 07:52:00,27.0,25.0,30.31,SSE,161,0.0,0.0,91,0.00,,,0.00,,2013-12-27 12:52:00,
2013-12-27 08:11:00,27.0,25.0,30.31,SSE,161,0.0,0.0,91,0.00,,,0.00,,2013-12-27 13:11:00,
2013-12-27 08:22:00,27.0,25.0,30.31,SSE,161,0.0,1.0,92,0.00,,,0.00,,2013-12-27 13:22:00,
2013-12-27 08:42:00,27.0,25.0,30.32,SSE,161,0.0,0.0,92,0.00,,,0.00,,2013-12-27 13:42:00,
2013-12-27 08:52:00,27.0,25.0,30.32,SSE,161,0.0,0.0,92,0.00,,,0.00,,2013-12-27 13:52:00,
2013-12-27 09:12:00,27.0,25.0,30.32,SSE,161,0.0,0.0,92,0.00,,,0.00,,2013-12-27 14:12:00,
2013-12-27 09:22:00,26.0,24.0,30.33,SSE,161,0.0,0.0,92,0.00,,,0.00,,2013-12-27 14:22:00,
2013-12-27 09:42:00,26.0,24.0,30.33,SSE,161,0.0,0.0,93,0.00,,,0.00,,2013-12-27 14:42:00,
2013-12-27 09:52:00,27.0,25.0,30.33,SSE,161,0.0,1.0,93,0.00,,,0.00,,2013-12-27 14:52:00,
2013-12-27 10:22:00,30.0,27.0,30.33,SSE,154,1.0,4.0,89,0.00,,,0.00,,2013-12-27 15:22:00,
2013-12-27 10:43:00,31.0,28.0,30.34,SSE,155,0.0,3.0,88,0.00,,,0.00,,2013-12-27 15:43:00,
2013-12-27 10:54:00,31.0,28.0,30.34,SE,146,0.0,4.0,87,0.00,,,0.00,,2013-12-27 15:54:00,
2013-12-27 11:13:00,31.0,28.0,30.34,SSE,150,1.0,5.0,88,0.00,,,0.00,,2013-12-27 16:13:00,
2013-12-27 11:23:00,32.0,29.0,30.34,SE,140,2.0,5.0,87,0.01,,,0.01,,2013-12-27 16:23:00,
2013-12-27 11:43:00,33.0,29.0,30.34,South,174,1.0,4.0,86,0.01,,,0.01,,2013-12-27 16:43:00,
2013-12-27 11:53:00,33.0,29.0,30.34,SSE,154,0.0,4.0,85,0.01,,,0.01,,2013-12-27 16:53:00,
2013-12-27 12:12:00,34.0,30.0,30.33,SE,133,2.0,5.0,85,0.01,,,0.01,,2013-12-27 17:12:00,
2013-12-27 12:22:00,34.0,30.0,30.33,SE,138,1.0,5.0,85,0.01,,,0.02,,2013-12-27 17:22:00,
2013-12-27 12:42:00,35.0,31.0,30.32,South,175,2.0,6.0,84,0.01,,,0.02,,2013-12-27 17:42:00,
2013-12-27 12:52:00,35.0,31.0,30.31,SSE,163,3.0,6.0,84,0.01,,,0.02,,2013-12-27 17:52:00,
2013-12-27 13:12:00,36.0,31.0,30.30,SSE,161,3.0,6.0,83,0.01,,,0.02,,2013-12-27 18:12:00,
2013-12-27 13:22:00,36.0,31.0,30.29,SW,214,2.0,8.0,82,0.00,,,0.02,,2013-12-27 18:22:00,
2013-12-27 13:42:00,37.0,32.0,30.29,SSE,164,3.0,7.0,81,0.01,,,0.03,,2013-12-27 18:42:00,
2013-12-27 13:53:00,37.0,32.0,30.29,SE,133,3.0,7.0,81,0.01,,,0.03,,2013-12-27 18:53:00,
2013-12-27 14:12:00,37.0,31.0,30.28,SSW,209,3.0,8.0,80,0.02,,,0.04,,2013-12-27 19:12:00,
2013-12-27 14:22:00,37.0,31.0,30.27,South,177,4.0,8.0,79,0.02,,,0.04,,2013-12-27 19:22:00,
2013-12-27 14:42:00,38.0,32.0,30.26,SSE,167,4.0,9.0,78,0.01,,,0.04,,2013-12-27 19:42:00,
2013-12-27 14:52:00,38.0,32.0,30.25,SW,232,4.0,9.0,78,0.01,,,0.04,,2013-12-27 19:52:00,
2013-12-27 15:11:00,39.0,32.0,30.25,SW,218,3.0,8.0,77,0.00,,,0.04,,2013-12-27 20:11:00,
2013-12-27 15:21:00,39.0,32.0,30.24,SE,143,4.0,10.0,77,0.00,,,0.04,,2013-12-27 20:21:00,
2013-12-27 15:42:00,39.0,33.0,30.23,SSE,150,3.0,11.0,78,0.00,,,0.04,,2013-12-27 20:42:00,
2013-12-27 15:52:00,39.0,33.0,30.22,SE,140,3.0,8.0,78,0.00,,,0.04,,2013-12-27 20:52:00,
2013-12-27 16:11:00,39.0,33.0,30.23,SE,140,3.0,9.0,79,0.00,,,0.04,,2013-12-27 21:11:00,
2013-12-27 16:22:00,39.0,33.0,30.22,SSE,157,2.0,6.0,79,0.00,,,0.04,,2013-12-27 21:22:00,
2013-12-27 16:43:00,39.0,33.0,30.22,South,171,2.0,7.0,80,0.00,,,0.04,,2013-12-27 21:43:00,
2013-12-27 16:53:00,39.0,33.0,30.22,SSE,148,2.0,7.0,80,0.00,,,0.04,,2013-12-27 21:53:00,
2013-12-27 17:13:00,38.0,33.0,30.22,SSE,165,2.0,5.0,81,0.00,,,0.04,,2013-12-27 22:13:00,
2013-12-27 17:23:00,38.0,33.0,30.22,SSE,152,2.0,5.0,81,0.00,,,0.04,,2013-12-27 22:23:00,
2013-12-27 17:43:00,38.0,33.0,30.22,SE,140,0.0,4.0,82,0.00,,,0.04,,2013-12-27 22:43:00,
2013-12-27 17:52:00,37.0,32.0,30.22,SE,127,1.0,3.0,83,0.00,,,0.04,,2013-12-27 22:52:00,
2013-12-27 18:12:00,37.0,33.0,30.21,SE,138,0.0,3.0,84,0.00,,,0.04,,2013-12-27 23:12:00,
2013-12-27 18:22:00,36.0,32.0,30.21,SE,138,0.0,3.0,85,0.00,,,0.04,,2013-12-27 23:22:00,
2013-12-27 18:42:00,36.0,32.0,30.21,SSE,161,0.0,3.0,85,0.00,,,0.04,,2013-12-27 23:42:00,
2013-12-27 18:52:00,35.0,31.0,30.21,South,178,0.0,3.0,86,0.00,,,0.04,,2013-12-27 23:52:00,
2013-12-27 19:11:00,35.0,32.0,30.21,SSE,155,1.0,4.0,87,0.00,,,0.04,,2013-12-28 00:11:00,
2013-12-27 19:22:00,35.0,32.0,30.20,SSE,156,1.0,4.0,87,0.00,,,0.04,,2013-12-28 00:22:00,
2013-12-27 19:42:00,35.0,32.0,30.19,SE,146,1.0,5.0,87,0.00,,,0.04,,2013-12-28 00:42:00,
2013-12-27 19:52:00,36.0,33.0,30.19,South,182,2.0,6.0,87,0.00,,,0.04,,2013-12-28 00:52:00,
2013-12-27 20:11:00,36.0,33.0,30.18,SE,136,3.0,7.0,87,0.00,,,0.04,,2013-12-28 01:11:00,
2013-12-27 20:21:00,36.0,33.0,30.18,SE,141,3.0,6.0,87,0.00,,,0.04,,2013-12-28 01:21:00,
2013-12-27 20:42:00,36.0,33.0,30.18,SSW,211,3.0,7.0,87,0.00,,,0.04,,2013-12-28 01:42:00,
2013-12-27 20:52:00,36.0,33.0,30.17,SSE,150,4.0,9.0,87,0.00,,,0.04,,2013-12-28 01:52:00,
2013-12-27 21:12:00,36.0,33.0,30.16,SSE,156,4.0,9.0,87,0.00,,,0.04,,2013-12-28 02:12:00,
2013-12-27 21:21:00,36.0,33.0,30.16,SSE,151,5.0,11.0,87,0.00,,,0.04,,2013-12-28 02:21:00,
2013-12-27 21:42:00,37.0,33.0,30.16,SE,136,4.0,10.0,86,0.00,,,0.04,,2013-12-28 02:42:00,
2013-12-27 21:52:00,36.0,33.0,30.16,SSE,160,4.0,10.0,87,0.00,,,0.04,,2013-12-28 02:52:00,
2013-12-27 22:12:00,36.0,33.0,30.15,SSW,204,5.0,9.0,87,0.00,,,0.04,,2013-12-28 03:12:00,
2013-12-27 22:22:00,36.0,33.0,30.14,SE,131,5.0,12.0,87,0.00,,,0.04,,2013-12-28 03:22:00,
2013-12-27 22:43:00,36.0,33.0,30.14,SSW,193,4.0,9.0,87,0.00,,,0.04,,2013-12-28 03:43:00,
2013-12-27 22:53:00,36.0,33.0,30.14,WNW,288,4.0,8.0,87,0.00,,,0.04,,2013-12-28 03:53:00,
2013-12-27 23:22:00,36.0,32.0,30.14,North,355,4.0,8.0,86,0.00,,,0.04,,2013-12-28 04:22:00,
2013-12-27 23:42:00,36.0,32.0,30.14,South,176,4.0,8.0,86,0.00,,,0.04,,2013-12-28 04:42:00,
2013-12-27 23:52:00,36.0,32.0,30.14,SSE,152,3.0,9.0,86,0.00,,,0.04,,2013-12-28 04:52:00,